Temperature
4 4 4 4 3 3 3 3 3 3 3 3 3 3 4 4 4 4 5 5 5 5 6 6 6 7 7 7 7 7 7 7 7 7 7 7 7 7 7 7 8 8 8
3 3 3 3 3 3 3 2 2 2 2 3 3 3 3 3 3 4 4 4 4 5 5 5 6 6 6 6 6 6 6 7 7 7 6 6 6 7 7 7 7 7 7
3 3 2 2 2 2 2 2 2 2 2 2 2 2 2 3 3 3 3 4 4 4 4 5 5 5 5 6 6 6 6 6 6 6 6 6 6 6 6 6 6 7 7
2 2 2 2 2 2 2 2 2 2 2 2 2 2 2 2 2 3 3 3 3 4 4 4 4 4 5 5 5 5 5 5 5 6 6 6 6 5 5 6 6 6 6
2 2 2 2 2 2 1 1 1 1 1 1 1 1 1 2 2 2 2 3 3 3 3 4 4 4 4 4 4 5 5 5 5 5 5 5 5 5 5 5 5 5 6
2 1 1 1 1 1 1 1 1 1 1 1 1 1 1 1 2 2 2 2 2 3 3 3 3 3 4 4 4 4 4 4 4 4 5 5 5 5 5 5 5 5 5
1 1 1 1 1 1 0 0 0 0 0 0 0 1 1 1 1 1 1 2 2 2 3 3 3 3 3 3 3 3 4 4 4 4 4 4 5 5 5 5 4 4 4
1 1 1 0 0 0 0 0 0 0 0 0 0 0 0 0 1 1 1 1 1 2 2 2 2 2 2 3 3 3 3 3 3 3 3 4 4 4 4 4 4 3 3
0 0 0 -0 -0 -0 -0 -0 -0 -0 -0 0 0 0 0 0 0 0 0 1 1 1 1 1 2 2 2 2 2 2 2 2 3 3 3 3 3 4 4 4 4 3 3
-1 -1 -0 -0 -1 -1 -1 -0 -1 -1 -0 -0 -0 -0 -0 -0 -0 -0 0 0 0 0 1 1 1 1 2 2 2 2 2 2 2 2 2 3 3 3 3 3 3 3 3
-1 -1 -1 -1 -1 -1 -1 -1 -1 -1 -1 -1 -1 -1 -1 -1 -0 -0 -0 -0 -0 0 0 1 1 1 1 1 1 1 1 1 2 2 2 2 2 2 3 3 3 3 3
-1 -1 -1 -1 -1 -2 -2 -2 -1 -1 -1 -1 -1 -1 -1 -1 -1 -1 -1 -0 -0 -0 0 0 1 1 1 1 1 1 1 1 1 1 1 1 2 2 2 2 2 2 2
-2 -2 -2 -2 -2 -2 -2 -2 -2 -2 -2 -1 -1 -1 -1 -1 -1 -1 -1 -1 -1 -1 -0 -0 -0 0 0 0 0 0 0 0 1 1 1 1 1 1 1 2 2 2 2
-3 -3 -3 -3 -3 -3 -3 -3 -2 -2 -2 -2 -2 -2 -1 -1 -1 -1 -1 -1 -1 -1 -1 -1 -0 -0 -0 -0 -0 -0 0 0 0 0 0 0 1 1 1 1 1 1 1
-4 -4 -4 -4 -4 -4 -3 -3 -3 -3 -3 -2 -2 -2 -2 -2 -2 -2 -1 -1 -1 -1 -1 -1 -1 -1 -1 -1 -1 -1 -0 -0 -0 -0 -0 -0 0 0 0 0 0 1 1
-5 -5 -5 -4 -4 -4 -4 -4 -3 -3 -3 -3 -3 -3 -2 -2 -2 -2 -2 -2 -2 -2 -2 -1 -1 -1 -1 -1 -1 -1 -1 -1 -1 -1 -1 -1 -1 -0 -0 -0 -0 -0 -0
-6 -5 -5 -5 -5 -5 -5 -4 -4 -4 -4 -4 -3 -3 -3 -3 -2 -2 -2 -2 -2 -2 -2 -2 -2 -2 -2 -2 -2 -2 -2 -1 -1 -1 -1 -1 -1 -1 -1 -1 -1 -1 -1
-6 -6 -5 -5 -5 -5 -5 -5 -4 -4 -4 -4 -4 -4 -3 -3 -3 -3 -3 -3 -3 -3 -3 -3 -3 -3 -3 -2 -2 -2 -2 -2 -2 -2 -2 -2 -2 -1 -2 -2 -1 -1 -1
-6 -6 -6 -6 -6 -6 -5 -5 -5 -5 -5 -5 -4 -4 -4 -4 -4 -3 -3 -3 -3 -3 -3 -3 -3 -3 -3 -3 -3 -3 -3 -3 -2 -2 -2 -2 -2 -2 -2 -2 -2 -2 -2
-6 -6 -6 -6 -6 -6 -6 -6 -6 -5 -5 -5 -5 -5 -5 -4 -4 -4 -4 -4 -4 -4 -4 -4 -4 -3 -3 -3 -3 -3 -3 -3 -3 -3 -3 -3 -3 -3 -3 -3 -3 -2 -2
-7 -7 -7 -7 -7 -7 -7 -6 -6 -6 -6 -6 -6 -6 -5 -5 -5 -5 -5 -5 -5 -5 -4 -4 -4 -4 -4 -4 -4 -4 -3 -3 -3 -3 -3 -3 -3 -3 -3 -3 -3 -3 -3
-7 -7 -7 -7 -7 -7 -7 -7 -7 -7 -7 -7 -6 -6 -6 -6 -6 -5 -5 -5 -5 -5 -5 -5 -5 -4 -4 -4 -4 -4 -4 -4 -4 -4 -4 -4 -4 -4 -4 -4 -4 -4 -4
-8 -8 -8 -8 -8 -8 -8 -8 -7 -7 -7 -7 -7 -7 -7 -6 -6 -6 -6 -6 -6 -6 -6 -6 -5 -5 -5 -5 -5 -5 -4 -5 -4 -4 -4 -4 -5 -5 -5 -4 -4 -4 -4
-9 -9 -8 -8 -8 -8 -8 -8 -8 -8 -8 -7 -7 -7 -7 -7 -7 -7 -7 -7 -7 -7 -7 -6 -6 -6 -6 -5 -5 -5 -5 -5 -5 -5 -5 -5 -5 -5 -5 -5 -5 -5 -5
-9 -9 -9 -9 -9 -9 -9 -9 -9 -8 -8 -8 -8 -8 -8 -8 -8 -8 -8 -8 -8 -8 -7 -7 -7 -7 -6 -6 -6 -6 -6 -6 -6 -6 -6 -6 -6 -6 -6 -6 -6 -6 -6
-10 -10 -9 -9 -9 -9 -9 -9 -9 -9 -9 -9 -8 -8 -8 -8 -8 -8 -8 -8 -8 -8 -8 -8 -8 -7 -7 -7 -7 -7 -6 -6 -6 -6 -6 -6 -6 -6 -6 -6 -6 -6 -6
Wind_Speed
4 3 3 2 2 1 1 1 2 2 2 1 1 1 1 1 0 1 1 1 1 2 2 1 1 2 2 2 2 3 3 3 3 3 2 2 2 2 2 3 4 5 5
2 2 1 1 2 2 2 2 3 3 3 3 2 2 2 1 1 0 0 0 1 1 1 1 1 2 3 2 2 3 3 2 3 4 4 2 1 1 1 2 3 3 4
4 3 2 2 1 2 3 3 3 3 3 2 1 1 0 0 1 1 1 1 1 1 1 1 2 2 3 3 3 3 4 4 2 3 4 4 3 2 0 1 2 2 2
3 3 2 2 2 3 3 3 3 3 3 3 3 4 3 3 3 2 2 2 2 2 2 2 2 3 3 4 4 3 4 4 4 2 1 1 3 3 2 1 2 2 3
2 3 3 3 3 3 3 3 4 3 3 3 4 4 3 3 2 2 2 2 2 3 3 2 3 3 3 4 5 4 4 4 4 4 2 1 1 2 3 4 3 1 2
1 1 2 2 2 2 3 3 4 4 4 4 4 5 5 4 3 3 3 3 2 2 3 3 3 3 4 5 5 5 5 5 3 3 3 4 3 4 3 4 5 3 2
1 2 2 3 3 3 4 4 4 4 4 4 4 5 5 6 6 5 5 4 3 3 4 4 3 4 4 5 5 5 5 5 5 4 3 3 3 2 2 4 3 2 1
2 3 4 4 4 4 4 4 4 4 4 5 5 5 5 5 5 5 5 5 5 5 4 4 4 5 5 5 5 4 5 5 5 5 4 4 3 3 3 4 4 3 1
3 4 4 4 4 4 4 4 4 4 4 5 4 5 5 5 5 5 5 4 4 4 5 5 5 5 6 6 6 5 5 5 5 5 5 4 3 3 3 3 4 5 4
4 5 4 5 4 4 4 4 4 4 4 4 5 5 5 5 5 5 6 5 5 5 6 6 5 5 6 6 6 5 6 6 5 4 5 4 3 3 3 3 3 3 3
5 5 5 5 5 5 5 4 4 4 3 4 4 4 5 5 5 5 6 6 6 6 6 6 6 6 6 7 6 6 7 7 6 5 6 5 4 4 4 3 3 3 3
5 5 5 6 6 6 6 5 4 4 4 4 4 4 4 4 5 5 5 5 5 6 6 6 6 6 6 7 8 8 7 8 8 7 7 6 5 5 4 4 4 3 3
6 6 6 6 6 6 7 6 4 5 4 4 4 4 4 4 5 5 5 5 5 5 5 6 6 6 6 7 8 8 8 8 8 8 8 7 6 6 5 5 5 4 3
6 6 6 6 7 7 7 6 6 4 4 3 3 3 4 5 5 5 5 5 5 5 5 6 6 6 6 7 8 8 8 8 8 8 7 7 8 8 7 6 6 4 3
7 7 7 7 7 7 7 6 6 5 4 3 3 4 4 4 3 4 4 4 4 5 5 5 5 5 5 7 8 8 8 8 7 6 6 7 8 8 7 6 6 5 4
9 8 8 8 8 8 8 7 7 6 5 4 4 4 3 2 2 3 3 2 3 3 4 4 5 5 5 8 10 8 8 8 8 7 6 6 7 8 8 8 8 7 6
8 8 8 8 8 8 7 7 7 6 5 5 5 4 3 3 2 2 1 2 2 2 3 4 4 5 6 8 9 9 7 7 7 7 6 5 6 7 6 6 7 7 8
7 8 8 8 8 8 7 7 6 5 5 5 5 5 4 3 3 2 2 2 2 2 2 3 3 3 5 7 8 8 6 5 6 6 7 6 6 6 6 6 5 5 6
6 7 7 7 7 7 7 6 6 6 6 6 6 5 4 3 3 2 3 2 2 2 2 2 2 3 3 6 7 7 5 4 5 6 7 7 6 8 8 6 6 5 4
6 6 6 6 7 8 6 6 6 6 6 6 6 6 4 3 3 3 3 2 2 2 2 2 1 2 2 4 5 7 4 4 4 4 5 8 8 8 9 7 6 7 5
6 6 6 6 7 7 6 6 6 7 7 7 6 5 5 4 3 3 3 2 2 2 2 2 2 2 2 3 4 5 3 4 4 3 3 4 7 8 8 7 6 7 5
6 6 6 7 7 7 5 6 7 7 7 6 6 6 5 4 4 3 3 3 2 2 2 2 2 2 3 3 3 4 5 4 3 3 3 4 6 7 7 6 6 6 4
6 5 5 6 7 7 6 6 7 7 7 6 6 6 6 5 4 3 3 3 3 2 2 2 2 3 3 3 4 4 4 4 3 2 4 4 5 6 5 5 5 4 3
6 6 6 6 7 7 7 6 7 7 6 6 6 5 5 5 5 4 3 3 3 2 2 2 2 2 2 2 2 2 2 2 2 2 2 3 4 3 3 2 2 2 3
6 5 5 6 7 7 7 8 7 6 6 6 5 5 5 4 4 4 3 3 3 3 3 2 2 2 2 3 3 1 1 1 2 2 1 1 1 2 2 1 1 2 2
5 5 5 6 6 7 7 7 7 6 5 5 5 4 4 4 4 4 4 6 6 7 7 5 4 3 3 4 3 3 2 2 2 2 2 2 2 2 2 2 2 2 2
Wind_Direction
206 183 176 166 159 161 185 214 214 231 212 211 227 259 297 301 327 41 50 81 83 97 109 105 99 128 148 159 149 147 143 148 145 122 101 61 76 114 130 118 114 111 123
191 181 179 177 195 202 218 247 240 236 220 213 224 223 231 249 235 293 358 146 126 126 141 129 168 153 159 158 147 144 157 161 153 145 148 139 127 53 116 130 136 130 118
192 197 202 213 218 237 238 256 259 246 229 225 209 198 203 282 273 272 266 253 203 181 170 168 176 172 173 178 174 169 155 169 179 164 162 162 186 175 251 164 154 152 141
190 201 208 230 242 256 261 270 267 246 233 217 201 196 204 223 233 235 250 258 223 195 189 183 180 182 183 185 184 176 173 170 179 183 174 156 149 163 178 214 192 178 170
194 209 225 235 255 262 262 273 267 248 238 222 210 206 213 223 223 223 238 247 232 205 187 181 180 186 185 180 180 184 181 177 180 184 177 150 151 147 165 189 194 205 209
232 246 272 280 282 276 268 272 259 254 242 229 218 213 211 211 214 220 222 237 242 223 201 191 195 196 187 185 184 190 190 188 184 186 179 174 176 175 168 181 189 205 224
278 274 276 272 274 275 265 260 248 249 237 226 226 224 218 213 214 215 217 224 230 234 222 204 209 205 197 191 184 192 197 194 191 193 198 195 197 179 174 170 182 201 249
300 290 278 271 274 278 271 252 251 255 239 226 228 229 224 223 224 219 218 222 226 225 215 209 214 205 197 194 187 195 201 194 196 200 204 200 203 184 174 173 169 181 242
312 308 302 292 286 285 279 256 253 261 251 236 234 233 224 227 227 223 222 224 230 223 208 213 219 209 198 192 189 203 206 196 196 199 202 203 204 194 185 177 174 175 196
329 319 309 302 296 288 285 275 253 253 256 243 237 240 227 227 228 225 224 222 225 222 210 217 218 211 200 193 193 207 203 198 201 197 194 204 207 193 182 183 188 183 187
320 322 319 312 312 314 308 296 278 266 261 254 249 239 234 232 228 225 228 226 226 219 215 212 212 210 204 198 202 208 197 200 204 203 197 204 206 200 193 188 191 194 188
321 322 325 330 331 325 316 306 296 283 269 258 253 248 244 236 228 229 231 222 224 218 211 209 207 209 208 203 205 208 202 203 205 202 201 204 205 209 197 192 200 207 199
330 333 335 330 325 321 319 313 299 288 282 267 254 256 250 240 236 235 235 223 224 224 217 210 210 208 209 212 211 208 204 206 207 204 204 206 202 211 201 197 204 210 209
330 334 332 327 324 322 321 322 319 310 304 288 267 260 255 247 243 240 234 226 223 223 225 215 215 213 213 216 215 214 209 208 210 210 208 209 209 211 204 207 208 203 201
338 335 330 328 328 327 325 326 327 331 327 317 307 296 286 268 252 242 239 230 226 228 224 213 220 219 219 218 213 213 212 208 210 213 213 216 218 218 210 211 203 197 202
332 332 330 330 328 327 327 328 328 331 330 326 317 318 316 300 268 254 252 244 234 228 219 214 218 223 229 229 224 219 208 209 206 209 213 218 226 221 221 225 220 208 203
327 330 329 324 321 318 320 320 321 329 332 330 331 330 328 320 304 296 282 271 258 246 233 222 216 225 236 236 230 227 212 202 202 204 208 219 224 217 209 221 226 228 233
326 326 326 325 322 322 324 323 327 332 332 331 332 335 334 328 326 326 303 289 287 266 248 238 220 225 248 246 235 227 214 206 205 206 207 213 212 214 208 206 212 225 233
315 315 319 319 323 326 329 330 334 338 340 335 330 330 328 326 322 320 313 311 306 296 274 257 230 228 262 257 236 228 210 211 213 213 215 214 210 216 214 207 210 223 239
323 323 327 331 334 334 338 343 339 340 333 326 324 326 327 326 318 315 316 324 312 299 301 312 302 257 263 264 243 229 212 215 221 215 213 220 218 215 215 208 205 217 227
326 331 336 339 336 337 344 347 342 333 325 330 333 338 337 331 331 339 342 340 325 331 337 325 319 310 287 274 254 242 216 212 214 212 215 220 222 219 218 218 212 221 219
333 339 342 340 338 342 348 347 337 329 333 340 344 344 344 342 347 355 350 349 349 347 334 329 326 323 308 292 263 250 241 228 208 218 221 215 216 217 218 222 221 220 214
334 339 340 339 341 345 349 342 332 333 340 348 349 347 348 352 354 355 356 356 357 348 325 323 322 324 324 310 292 269 254 240 223 226 226 217 215 217 218 224 221 213 195
339 342 345 344 341 341 344 338 332 336 344 349 349 350 354 356 360 358 358 359 352 344 333 331 324 325 326 323 305 295 281 259 251 248 237 230 223 217 214 218 218 205 196
337 343 343 339 335 337 340 341 340 340 347 348 350 353 356 355 358 2 3 360 355 344 339 324 316 319 320 320 316 275 248 210 207 181 178 182 194 190 185 190 196 196 204
330 335 335 335 333 337 339 340 339 340 346 349 350 351 353 354 357 356 358 2 2 360 358 353 342 329 329 331 334 332 299 244 210 178 163 182 191 196 199 202 211 214 213
Height
1494 1495 1495 1495 1496 1496 1495 1496 1496 1495 1495 1495 1495 1495 1495 1496 1497 1498 1499 1500 1501 1502 1504 1505 1506 1507 1509 1510 1512 1513 1515 1518 1520 1522 1525 1528 1530 1531 1532 1534 1535 1536 1538
1490 1490 1491 1491 1492 1492 1492 1492 1492 1492 1492 1492 1492 1492 1492 1492 1493 1494 1495 1497 1498 1499 1500 1502 1503 1504 1506 1507 1509 1510 1512 1514 1516 1518 1521 1524 1528 1528 1530 1531 1532 1534 1535
1486 1487 1487 1488 1488 1488 1489 1488 1488 1488 1488 1488 1488 1488 1489 1489 1490 1491 1492 1493 1494 1496 1497 1498 1499 1500 1502 1504 1505 1507 1508 1510 1513 1515 1517 1520 1521 1524 1526 1528 1529 1531 1532
1484 1484 1484 1484 1484 1485 1485 1485 1484 1484 1484 1484 1484 1484 1484 1484 1485 1487 1488 1490 1491 1492 1493 1494 1496 1497 1499 1500 1501 1503 1505 1507 1509 1511 1514 1516 1517 1520 1522 1525 1526 1528 1529
1482 1482 1482 1481 1482 1482 1481 1481 1480 1479 1480 1480 1480 1480 1481 1481 1482 1484 1485 1486 1487 1488 1490 1491 1492 1494 1495 1496 1498 1499 1502 1503 1505 1507 1509 1511 1514 1515 1517 1519 1522 1524 1526
1480 1480 1479 1479 1479 1478 1478 1477 1475 1475 1475 1475 1475 1476 1476 1477 1478 1479 1480 1482 1483 1484 1485 1487 1489 1490 1491 1492 1494 1496 1498 1499 1501 1503 1505 1507 1509 1511 1513 1514 1516 1519 1522
1478 1478 1477 1476 1475 1474 1473 1472 1471 1470 1470 1471 1471 1471 1472 1473 1474 1475 1476 1477 1478 1479 1481 1483 1484 1486 1487 1489 1490 1492 1494 1495 1497 1499 1501 1503 1505 1507 1509 1511 1513 1515 1517
1476 1476 1475 1474 1472 1470 1468 1467 1467 1466 1466 1466 1467 1468 1468 1469 1470 1471 1472 1473 1474 1475 1477 1479 1480 1481 1483 1484 1486 1488 1489 1491 1493 1495 1497 1500 1501 1504 1506 1508 1509 1512 1514
1475 1474 1473 1471 1469 1467 1465 1464 1463 1463 1462 1463 1463 1463 1464 1465 1466 1466 1468 1469 1470 1471 1473 1474 1476 1477 1478 1480 1481 1483 1485 1487 1489 1491 1493 1495 1497 1500 1502 1504 1506 1508 1509
1474 1473 1472 1469 1467 1465 1463 1461 1461 1460 1459 1459 1459 1459 1460 1461 1461 1462 1463 1464 1465 1467 1468 1470 1471 1472 1473 1475 1477 1478 1480 1482 1484 1486 1489 1491 1493 1495 1498 1500 1502 1504 1506
1473 1471 1469 1467 1465 1462 1460 1458 1457 1456 1456 1456 1456 1456 1456 1456 1457 1458 1459 1460 1461 1462 1463 1465 1466 1467 1468 1470 1472 1473 1475 1477 1480 1482 1484 1486 1489 1491 1493 1495 1498 1500 1502
1473 1470 1468 1465 1462 1460 1458 1455 1454 1453 1453 1452 1452 1452 1452 1452 1453 1453 1454 1455 1456 1457 1458 1460 1461 1462 1463 1465 1467 1468 1470 1473 1475 1477 1479 1482 1484 1486 1489 1490 1493 1495 1497
1471 1469 1466 1463 1461 1458 1455 1453 1451 1450 1449 1449 1448 1448 1448 1448 1448 1449 1450 1451 1452 1452 1453 1454 1455 1457 1458 1460 1462 1464 1466 1468 1469 1472 1474 1476 1479 1481 1483 1486 1488 1490 1492
1470 1467 1464 1462 1459 1456 1453 1451 1448 1447 1446 1446 1445 1444 1444 1444 1444 1445 1445 1446 1447 1448 1448 1449 1450 1452 1453 1455 1457 1459 1461 1463 1465 1467 1469 1472 1474 1476 1478 1480 1483 1485 1487
1468 1465 1463 1460 1457 1454 1451 1449 1447 1445 1444 1443 1441 1441 1441 1440 1441 1441 1441 1442 1443 1443 1444 1444 1446 1447 1448 1450 1452 1454 1456 1458 1460 1462 1464 1467 1469 1471 1473 1475 1477 1479 1481
1467 1464 1462 1459 1456 1453 1450 1447 1446 1444 1442 1440 1439 1438 1437 1437 1437 1437 1437 1437 1438 1439 1439 1440 1441 1442 1444 1445 1447 1449 1451 1452 1454 1457 1459 1461 1464 1466 1468 1471 1473 1474 1476
1467 1464 1461 1458 1455 1452 1449 1447 1444 1442 1440 1439 1437 1436 1435 1434 1434 1434 1434 1433 1434 1434 1434 1435 1437 1438 1439 1441 1442 1444 1446 1447 1449 1452 1454 1456 1458 1461 1463 1465 1467 1469 1471
1466 1463 1460 1457 1454 1452 1449 1446 1444 1441 1439 1437 1436 1434 1433 1432 1432 1431 1431 1431 1430 1430 1431 1431 1432 1433 1435 1436 1438 1439 1441 1442 1444 1446 1449 1451 1453 1455 1458 1460 1462 1463 1465
1465 1463 1460 1457 1454 1450 1447 1444 1442 1440 1438 1436 1434 1433 1432 1431 1430 1429 1428 1428 1427 1427 1427 1428 1428 1429 1430 1432 1434 1435 1436 1438 1439 1441 1444 1446 1447 1450 1452 1455 1456 1457 1459
1464 1461 1458 1455 1452 1449 1446 1444 1441 1438 1436 1435 1433 1431 1430 1429 1428 1427 1426 1426 1425 1425 1425 1424 1425 1426 1427 1428 1430 1432 1433 1433 1435 1436 1438 1440 1442 1445 1447 1449 1451 1452 1453
1463 1460 1457 1454 1451 1448 1445 1442 1440 1437 1436 1434 1432 1430 1429 1428 1427 1426 1425 1424 1423 1423 1422 1422 1422 1423 1424 1425 1426 1427 1429 1430 1431 1432 1433 1435 1438 1440 1442 1444 1446 1447 1449
1461 1458 1455 1452 1450 1447 1444 1441 1439 1437 1435 1432 1430 1429 1428 1426 1425 1424 1423 1422 1421 1421 1420 1420 1420 1420 1421 1422 1423 1423 1425 1426 1427 1428 1430 1431 1434 1436 1438 1439 1441 1443 1445
1459 1457 1454 1452 1449 1446 1443 1440 1438 1436 1434 1432 1429 1428 1426 1425 1424 1422 1421 1420 1420 1419 1418 1418 1417 1418 1419 1419 1420 1420 1421 1422 1423 1424 1426 1428 1430 1431 1433 1435 1436 1438 1439
1458 1456 1453 1450 1448 1445 1443 1440 1438 1436 1433 1430 1428 1427 1425 1424 1423 1421 1420 1419 1419 1418 1417 1417 1416 1416 1417 1417 1417 1417 1418 1419 1420 1421 1422 1424 1425 1427 1428 1430 1432 1433 1434
1457 1455 1452 1449 1447 1445 1442 1440 1437 1435 1432 1430 1428 1426 1424 1423 1422 1421 1420 1419 1418 1418 1417 1416 1415 1415 1414 1415 1415 1415 1415 1416 1416 1417 1418 1419 1421 1422 1423 1425 1427 1428 1430
1456 1454 1451 1449 1446 1444 1442 1440 1437 1435 1432 1429 1427 1425 1424 1422 1421 1420 1419 1418 1417 1417 1416 1415 1414 1413 1413 1412 1412 1412 1412 1413 1414 1414 1414 1415 1416 1418 1419 1420 1422 1423 1425